User: anonymous   Login
Location: Unspecified
(0.0000°N, 0.0000°E)
Time: 02:04:29
(UTC+00:00)
Language:

LEMUR-2-KARENDARRELL - Orbit

View from above orbital plane
View from above orbital plane
View from above satellite
View from above satellite

Ground track
Ground track

The orbit is defined by the following mean orbital elements,

1 64841U          26145.56981352 +.00000000 +00000-0 +54617-3 0 00009
2 64841  97.7669 261.8248 0008297 291.3578  68.6760 14.99730024    03
Epoch (UTC): 25 May 2026 13:40:31
Eccentricity: 0.0008297
inclination: 97.7669°
perigee height: 562 km
apogee height: 573 km
right ascension of ascending node: 261.8248°
argument of perigee: 291.3578°
revolutions per day: 14.99730024
mean anomaly at epoch: 68.6760°

The dashed part of the orbit path shows where the satellite is in the earth's shadow,  

DLR